• In Hungary
  • List of Countries
  • For 7 days
  • Water Temperature
  • Satellite Maps
  • Weather Map
  • News
  • Weather Widgets
  • user-avatar
    Login

    Hourly Weather Pochinki

    Today, 16 November, Friday

    Time Temperature Precipitation Wind Pressure Humidity
    00:00 -4°C° 0 mm 2 mps 761 mmHg 30%
    01:00 -4°C° 0 mm 2 mps 761 mmHg 29%
    02:00 -5°C° 0 mm 2 mps 761 mmHg 28%
    03:00 -5°C° 0 mm 2 mps 762 mmHg 28%
    04:00 -5°C° 0 mm 2 mps 762 mmHg 28%
    05:00 -5°C° 0 mm 2 mps 762 mmHg 28%
    06:00 -5°C° 0 mm 2 mps 762 mmHg 28%
    07:00 -5°C° 0 mm 2 mps 762 mmHg 28%
    08:00 -5°C° 0 mm 2 mps 763 mmHg 27%
    09:00 -5°C° 0 mm 2 mps 763 mmHg 27%
    10:00 -4°C° 0 mm 2 mps 763 mmHg 24%
    11:00 -3°C° 0 mm 2 mps 763 mmHg 22%
    12:00 -2°C° 0 mm 2 mps 763 mmHg 20%
    13:00 -1°C° 0 mm 2 mps 763 mmHg 20%
    14:00 -1°C° 0 mm 2 mps 763 mmHg 20%
    15:00 -1°C° 0 mm 2 mps 763 mmHg 21%
    16:00 -2°C° 0 mm 2 mps 763 mmHg 21%
    17:00 -2°C° 0 mm 2 mps 763 mmHg 22%
    18:00 -3°C° 0 mm 2 mps 763 mmHg 23%
    19:00 -3°C° 0 mm 2 mps 763 mmHg 22%
    20:00 -3°C° 0 mm 2 mps 763 mmHg 22%
    21:00 -3°C° 0 mm 2 mps 763 mmHg 22%
    22:00 -4°C° 0 mm 2 mps 763 mmHg 21%
    23:00 -2°C° 0 mm 1 mps 763 mmHg 21%

    Tomorrow, 17 November, Saturday

    Time Temperature Precipitation Wind Pressure Humidity
    00:00 -2°C° 0 mm 1 mps 763 mmHg 21%
    01:00 -2°C° 0 mm 1 mps 763 mmHg 20%
    02:00 -2°C° 0 mm 1 mps 763 mmHg 20%
    03:00 -2°C° 0 mm 1 mps 762 mmHg 20%
    04:00 -2°C° 0 mm 1 mps 762 mmHg 19%
    05:00 -2°C° 0 mm 1 mps 762 mmHg 19%
    06:00 -2°C° 0 mm 1 mps 762 mmHg 19%
    07:00 -2°C° 0 mm 1 mps 761 mmHg 19%
    08:00 -2°C° 0 mm 1 mps 761 mmHg 18%
    09:00 -2°C° 0 mm 1 mps 761 mmHg 18%
    10:00 -1°C° 0 mm 1 mps 760 mmHg 17%
    11:00 0°C° 0 mm 1 mps 760 mmHg 16%
    12:00 +2°C° 0 mm 1 mps 760 mmHg 15%
    13:00 +1°C° 0 mm 2 mps 759 mmHg 16%
    14:00 +1°C° 0 mm 2 mps 758 mmHg 18%
    15:00 +1°C° 0 mm 2 mps 758 mmHg 19%
    16:00 -1°C° 0 mm 2 mps 757 mmHg 20%
    17:00 -2°C° 0 mm 3 mps 756 mmHg 20%
    18:00 -2°C° 0 mm 3 mps 756 mmHg 21%
    19:00 -2°C° 0 mm 3 mps 755 mmHg 21%
    20:00 -2°C° 0 mm 3 mps 754 mmHg 21%
    21:00 -2°C° 0 mm 3 mps 754 mmHg 21%
    22:00 -4°C° 0 mm 3 mps 753 mmHg 22%
    23:00 -4°C° 0 mm 3 mps 752 mmHg 22%

    Day after tomorrow, 18 November, Sunday

    Time Temperature Precipitation Wind Pressure Humidity
    00:00 -4°C° 0 mm 4 mps 752 mmHg 22%
    01:00 -4°C° 0 mm 4 mps 751 mmHg 23%
    02:00 -4°C° 0 mm 4 mps 751 mmHg 23%
    03:00 -4°C° 0 mm 4 mps 750 mmHg 24%
    04:00 -4°C° 0 mm 4 mps 749 mmHg 26%
    05:00 -4°C° 0 mm 4 mps 749 mmHg 27%
    06:00 -4°C° 0 mm 4 mps 748 mmHg 29%
    07:00 -4°C° 0 mm 4 mps 748 mmHg 33%
    08:00 -4°C° 0 mm 3 mps 747 mmHg 37%
    09:00 -4°C° 0 mm 3 mps 747 mmHg 40%
    10:00 -4°C° 0 mm 3 mps 747 mmHg 42%
    11:00 -2°C° 0 mm 3 mps 747 mmHg 45%
    12:00 -1°C° 0 mm 3 mps 747 mmHg 47%
    13:00 -1°C° 0 mm 3 mps 747 mmHg 46%
    14:00 -1°C° 0 mm 3 mps 747 mmHg 46%
    15:00 -1°C° 0 mm 2 mps 747 mmHg 46%
    16:00 -1°C° 0 mm 2 mps 747 mmHg 44%
    17:00 -2°C° 0 mm 2 mps 747 mmHg 42%
    18:00 -3°C° 0 mm 2 mps 747 mmHg 41%
    19:00 -3°C° 0 mm 2 mps 748 mmHg 38%
    20:00 -3°C° 0 mm 2 mps 748 mmHg 36%
    21:00 -3°C° 0 mm 2 mps 748 mmHg 33%
    22:00 -3°C° 0 mm 2 mps 749 mmHg 32%
    23:00 -3°C° 0 mm 2 mps 749 mmHg 31%

    19 November, Monday

    Time Temperature Precipitation Wind Pressure Humidity
    00:00 -4°C° 0 mm 2 mps 749 mmHg 30%
    01:00 -2°C° 0 mm 1 mps 750 mmHg 30%
    02:00 -2°C° 0 mm 1 mps 750 mmHg 30%
    03:00 -2°C° 0 mm 1 mps 751 mmHg 30%
    04:00 -2°C° 0 mm 1 mps 751 mmHg 31%
    05:00 -5°C° 0 mm 2 mps 751 mmHg 32%
    06:00 -5°C° 0 mm 2 mps 751 mmHg 32%
    07:00 -5°C° 0 mm 2 mps 752 mmHg 33%
    08:00 -5°C° 0 mm 2 mps 753 mmHg 34%
    09:00 -5°C° 0 mm 2 mps 753 mmHg 35%
    10:00 -4°C° 0 mm 2 mps 754 mmHg 35%
    11:00 -3°C° 0 mm 2 mps 754 mmHg 34%
    12:00 -2°C° 0 mm 2 mps 755 mmHg 34%
    13:00 -2°C° 0 mm 2 mps 755 mmHg 35%
    14:00 -2°C° 0 mm 2 mps 755 mmHg 36%
    15:00 -1°C° 0 mm 2 mps 756 mmHg 37%
    16:00 -2°C° 0 mm 2 mps 756 mmHg 38%
    17:00 -3°C° 0 mm 2 mps 756 mmHg 40%
    18:00 -3°C° 0 mm 2 mps 756 mmHg 42%
    19:00 -4°C° 0 mm 2 mps 756 mmHg 42%
    20:00 -5°C° 0 mm 3 mps 756 mmHg 42%
    21:00 -5°C° 0 mm 3 mps 757 mmHg 43%
    22:00 -4°C° 0 mm 2 mps 757 mmHg 43%
    23:00 -4°C° 0 mm 2 mps 757 mmHg 42%

    20 November, Tuesday

    Time Temperature Precipitation Wind Pressure Humidity
    00:00 -4°C° 0 mm 2 mps 757 mmHg 42%
    01:00 -5°C° 0 mm 2 mps 757 mmHg 42%
    02:00 -5°C° 0 mm 2 mps 757 mmHg 42%
    03:00 -5°C° 0 mm 2 mps 757 mmHg 41%
    04:00 -5°C° 0 mm 2 mps 757 mmHg 41%
    05:00 -5°C° 0 mm 2 mps 757 mmHg 40%
    06:00 -6°C° 0 mm 3 mps 757 mmHg 40%
    07:00 -5°C° 0 mm 2 mps 757 mmHg 39%
    08:00 -5°C° 0 mm 2 mps 757 mmHg 39%
    09:00 -6°C° 0 mm 2 mps 757 mmHg 38%
    10:00 -5°C° 0 mm 2 mps 757 mmHg 36%
    11:00 -4°C° 0 mm 2 mps 757 mmHg 34%
    12:00 -3°C° 0 mm 2 mps 757 mmHg 32%
    13:00 -3°C° 0 mm 2 mps 757 mmHg 33%
    14:00 -3°C° 0 mm 2 mps 756 mmHg 34%
    15:00 -2°C° 0 mm 2 mps 756 mmHg 36%
    16:00 -3°C° 0 mm 2 mps 756 mmHg 40%
    17:00 -4°C° 0 mm 2 mps 756 mmHg 44%
    18:00 -4°C° 0 mm 2 mps 756 mmHg 48%
    19:00 -4°C° 0 mm 2 mps 755 mmHg 50%
    20:00 -5°C° 0 mm 2 mps 755 mmHg 52%
    21:00 -5°C° 0 mm 2 mps 755 mmHg 53%
    22:00 -5°C° 0 mm 2 mps 755 mmHg 52%
    23:00 -5°C° 0 mm 2 mps 755 mmHg 52%

    21 November, Wednesday

    Time Temperature Precipitation Wind Pressure Humidity
    00:00 -3°C° 0 mm 1 mps 755 mmHg 51%
    01:00 -3°C° 0 mm 1 mps 755 mmHg 50%
    02:00 -3°C° 0 mm 1 mps 755 mmHg 49%
    03:00 -3°C° 0 mm 1 mps 754 mmHg 49%
    04:00 -3°C° 0 mm 1 mps 754 mmHg 49%
    05:00 -5°C° 0 mm 2 mps 754 mmHg 49%
    06:00 -6°C° 0 mm 2 mps 754 mmHg 49%
    07:00 -6°C° 0 mm 2 mps 754 mmHg 49%
    08:00 -5°C° 0 mm 2 mps 754 mmHg 49%
    09:00 -3°C° 0 mm 1 mps 754 mmHg 49%
    10:00 -3°C° 0 mm 1 mps 753 mmHg 46%
    11:00 -2°C° 0 mm 1 mps 753 mmHg 43%
    12:00 -1°C° 0 mm 1 mps 753 mmHg 40%
    13:00 -1°C° 0 mm 1 mps 753 mmHg 41%
    14:00 -1°C° 0 mm 1 mps 752 mmHg 41%
    15:00 0°C° 0 mm 1 mps 752 mmHg 42%
    16:00 -1°C° 0 mm 1 mps 752 mmHg 46%
    17:00 -3°C° 0 mm 2 mps 751 mmHg 49%
    18:00 -4°C° 0 mm 2 mps 751 mmHg 53%
    19:00 -4°C° 0 mm 2 mps 751 mmHg 57%
    20:00 -4°C° 0 mm 2 mps 751 mmHg 60%
    21:00 -5°C° 0 mm 2 mps 751 mmHg 63%
    22:00 -5°C° 0 mm 2 mps 751 mmHg 67%
    23:00 -5°C° 0 mm 2 mps 751 mmHg 71%
    Show more